Regional Weather Roundup
Issued by NWS

Home | Current Version | Previous Version | Text Only | Print | Product List | Glossary On
Versions: 1 2 3 4 5 6 7 8 9 10 11 12 13 14 15 16 17 18 19 20 21 22 23 24 25 26 27 28 29 30 31 32 33 34 35 36 37 38 39 40 41 42 43 44 45 46 47 48 49 50
000
ASUS45 KSLC 311110
RWRUT
UTAH REGIONAL WEATHER ROUNDUP
NATIONAL WEATHER SERVICE SALT LAKE CITY UT
500 AM MDT FRI JUL 31 2015

UTZ001>011-023>025-311200-

NORTHERN UTAH

CITY           SKY/WX    TMP DP  RH WIND       PRES   REMARKS
BRIGHAM CITY   CLEAR     59  35  39 CALM      30.23S
HILL AFB       PTCLDY    64  30  27 E20G25    30.24S
LOGAN          CLEAR     51  39  63 CALM      30.27S
OGDEN          PTCLDY    63  31  30 S8        30.22S
PROVO AIRPORT  CLEAR     57  30  35 CALM      30.25S
SALT LAKE CITY PTCLDY    65  35  33 S9        30.21S
VERNAL         CLEAR     56  33  42 W3        30.27S
WENDOVER       MOCLDY    70  34  26 SE7       30.22R
HEBER CITY     CLEAR     45  32  61 CALM      30.36S
WEST JORDAN    CLEAR     63  34  34 CALM      30.24S

$$

UTZ012>022-026-027-311200-

SOUTHERN/CENTRAL UTAH

CITY           SKY/WX    TMP DP  RH WIND       PRES   REMARKS
BLANDING       PTCLDY    60  54  80 NW6       30.44F
BRYCE CANYON   MOCLDY    54  42  64 W5        30.45S
CEDAR CITY     CLOUDY    64  38  38 CALM      30.28S
DELTA          PTCLDY    63  29  27 E5        30.23S
HANKSVILLE     PTCLDY    70  32  24 SE5       30.21F
MILFORD        MOCLDY    61  24  24 CALM      30.23S
MOAB/CYNLANDS  CLEAR     72  47  40 SE9       30.20R
PRICE          PTCLDY    59  16  18 CALM      30.29S
ST GEORGE      SUNNY     82  48  30 E8        30.10S
KANAB          MOCLDY    68  46  45 NW10      30.30S

$$

REGIONAL REPORTS     COLORADO/ARIZONA

CITY           SKY/WX    TMP DP  RH WIND       PRES   REMARKS
CRAIG, CO      CLEAR     41  32  70 CALM      30.37S
GRAND JUNCTION CLEAR     62  30  29 CALM      30.23S
RIFLE          CLEAR     57  30  35 VRB3      30.32R
MONTROSE       PTCLDY    60  37  42 S5        30.33S
CORTEZ         CLEAR     62  58  86 CALM      30.35F
PAGE, AZ       MOCLDY    78  54  43 SE10      30.21R
GRAND CANYON   PTCLDY    66  51  58 E3        30.38R
KINGMAN        PTCLDY    73  54  51 CALM      30.11S
FLAGSTAFF      PTCLDY    50  50 100 CALM      30.41S

$$

REGIONAL REPORTS    NEVADA/IDAHO/WYOMING

CITY           SKY/WX    TMP DP  RH WIND       PRES   REMARKS
LAS VEGAS, NV  CLOUDY    90  52  27 S3        29.96S
ELY            MOCLDY    52  23  32 S6        30.37R
ELKO           PTCLDY    54  31  41 CALM      30.28R
POCATELLO, ID  CLEAR     48  37  65 N5        30.27R
BURLEY         CLEAR     50  41  71 CALM      30.22R
EVANSTON, WY   PTCLDY    53  24  32 SE8       30.44S
ROCK SPRINGS   PTCLDY    58  19  22 E3        30.41R
KEMMERER       PTCLDY    50  28  43 NW3       30.45S

$$



USA.gov is the U.S. government's official web portal to all federal, state and local government web resources and services.